Location: Beetenbrück
(52.8113°N, 9.5946°E)
Time: 22:13:57
(UTC+00:00)

Molniya-1 - Pass Details

Date: 14 April 2026
Orbit: 353 x 13511 km, 62.9° (Epoch: 12 May)

Event Time Altitude Azimuth Distance (km) Brightness Sun altitude
Exits shadow 21:24:08 67° 197° (SSW) 675 3.5 -22.7°
Maximum altitude 21:24:34 80° 135° (SE) 677 3.5 -22.7°
Drops below altitude 10° 21:32:06 10° 49° (NE) 3,897 7.7 -23.3°
Sets 21:37:45 0° 49° (NE) 6,361 8.9 -23.7°
